• Join FlightAware (Why Join?)
  • Login
  • US Flag 
07:19AM EDT


 

Airport Tracker/Info


-or-


 

Live Flight TrackerFlight Track Log ✈ VRT51 ✈ 14-Aug-2013 ✈ KBHM - KTEB

Flight Track Log - Related Links

Times and Time Zones

All times are in EDT time to prevent confusion due to time zone crossing. See the VRT51 flight status page for this flight to view local times or setup timezone preferences in your user account.

Time Position Orientation Groundspeed Altitude Reporting Facility
EDT Latitude Longitude Course Direction KTS MPH feet Rate Location/Type
08:30AM 33.5725 -86.7464 80° East 165 190 1,400  Level Atlanta Center
08:31AM 33.5847 -86.6597 80° East 195 224 4,600 2,580 Climbing Atlanta Center
08:32AM 33.5508 -86.5836 118° Southeast 209 241 7,300 2,400 Climbing Atlanta Center
08:33AM 33.5361 -86.4886 101° East 247 284 9,500 1,320 Climbing Atlanta Center
08:34AM 33.5422 -86.3842 86° East 290 334 10,000 840 Climbing Atlanta Center
08:35AM 33.5492 -86.2447 87° East 346 398 11,200 1,260 Climbing Atlanta Center
08:36AM 33.5556 -86.1203 86° East 362 417 12,600 1,440 Climbing Atlanta Center
08:37AM 33.5617 -85.9908 87° East 376 433 14,100 2,040 Climbing Atlanta Center
08:38AM 33.5681 -85.8514 87° East 395 455 16,700 2,640 Climbing Atlanta Center
08:39AM 33.5764 -85.7119 86° East 412 474 19,400 2,400 Climbing Atlanta Center
08:40AM 33.5825 -85.5622 87° East 423 487 21,500 2,100 Climbing Atlanta Center
08:41AM 33.5903 -85.4153 86° East 423 487 23,600 2,100 Climbing Atlanta Center
08:42AM 33.5961 -85.2658 87° East 442 509 25,700 2,040 Climbing Atlanta Center
08:43AM 33.6039 -85.1089 87° East 454 522 27,700 1,800 Climbing Atlanta Center
08:44AM 33.6114 -84.9517 87° East 461 531 29,300 1,500 Climbing Atlanta Center
08:45AM 33.6167 -84.7897 88° East 466 536 30,800 1,500 Climbing Atlanta Center
08:46AM 33.6217 -84.6325 88° East 476 548 32,400 1,440 Climbing Atlanta Center
08:47AM 33.6264 -84.4903 88° East 476 548 33,700 1,260 Climbing Atlanta Center
08:48AM 33.6853 -84.3483 63° Northeast 460 529 35,000 600 Climbing Atlanta Center
08:49AM 33.7669 -84.2136 54° Northeast 460 529 35,000  Level Atlanta Center
08:50AM 33.8464 -84.0789 55° Northeast 483 556 35,000  Level Atlanta Center
08:51AM 33.9214 -83.9461 56° Northeast 488 562 35,000  Level Atlanta Center
08:52AM 33.9986 -83.8058 56° Northeast 488 562 35,000 540 Level Atlanta Center
08:53AM 34.0756 -83.6703 56° Northeast 488 562 36,100 1,140 Climbing Atlanta Center
08:54AM 34.1500 -83.5367 56° Northeast 488 562 37,300 1,200 Climbing Atlanta Center
08:55AM 34.2267 -83.4056 55° Northeast 483 556 38,500 1,140 Climbing Atlanta Center
08:56AM 34.2992 -83.2769 56° Northeast 478 550 39,600 960 Climbing Atlanta Center
08:57AM 34.3711 -83.1453 56° Northeast 472 543 40,500 660 Climbing Atlanta Center
08:58AM 34.4433 -83.0161 56° Northeast 467 537 41,000 240 Climbing Atlanta Center
08:59AM 34.5172 -82.8817 56° Northeast 472 543 41,000  Level Atlanta Center
09:00AM 34.5908 -82.7469 56° Northeast 478 550 41,000  Level Atlanta Center
09:01AM 34.6667 -82.6044 57° Northeast 484 557 41,000  Level Atlanta Center
09:02AM 34.7422 -82.4664 56° Northeast 489 563 41,000  Level Atlanta Center
09:03AM 34.8175 -82.3311 56° Northeast 489 563 41,000  Level Atlanta Center
09:04AM 34.8906 -82.1903 58° Northeast 489 563 41,000  Level Atlanta Center
09:05AM 34.9658 -82.0567 55° Northeast 483 556 41,000  Level Atlanta Center
09:06AM 35.0406 -81.9181 57° Northeast 488 562 41,000  Level Atlanta Center
09:07AM 35.1153 -81.7764 57° Northeast 488 562 41,000  Level Atlanta Center
09:08AM 35.1897 -81.6347 57° Northeast 488 562 41,000  Level Atlanta Center
09:09AM 35.2642 -81.4925 57° Northeast 494 568 41,000  Level Atlanta Center
09:10AM 35.3361 -81.3478 59° Northeast 494 568 41,000  Level Atlanta Center
09:11AM 35.4100 -81.2028 58° Northeast 501 577 41,000  Level Atlanta Center
09:12AM 35.4858 -81.0519 58° Northeast 506 582 41,000  Level Atlanta Center
09:13AM 35.5656 -80.9061 56° Northeast 511 588 41,000  Level Atlanta Center
09:14AM 35.6414 -80.7678 56° Northeast 506 582 41,000  Level Atlanta Center
09:15AM 35.7167 -80.6217 58° Northeast 506 582 41,000  Level Atlanta Center
09:17AM 35.8731 -80.3136 58° Northeast 507 583 41,000  Level Washington Center
09:18AM 35.9497 -80.1642 58° Northeast 507 583 41,000  Level Washington Center
09:19AM 36.0172 -80.0372 57° Northeast 499 574 41,000  Level Washington Center
09:20AM 36.0956 -79.8925 56° Northeast 499 574 41,000  Level Washington Center
09:21AM 36.1844 -79.7328 55° Northeast 499 574 41,000  Level Washington Center
09:22AM 36.2644 -79.5900 55° Northeast 511 588 41,000  Level Washington Center
09:23AM 36.3397 -79.4597 54° Northeast 505 581 41,000  Level Washington Center
09:24AM 36.4197 -79.3114 56° Northeast 510 587 41,000  Level Washington Center
09:25AM 36.5014 -79.1656 55° Northeast 510 587 41,000  Level Washington Center
09:26AM 36.5847 -79.0219 54° Northeast 515 593 41,000  Level Washington Center
09:27AM 36.6728 -78.8550 57° Northeast 515 593 41,000  Level Washington Center
09:28AM 36.7561 -78.7081 55° Northeast 520 598 41,000  Level Washington Center
09:29AM 36.8553 -78.5822 45° Northeast 507 583 41,000  Level Washington Center
09:30AM 36.9683 -78.4747 37° Northeast 497 572 41,000  Level Washington Center
09:31AM 37.0731 -78.3772 37° Northeast 507 583 41,000  Level Washington Center
09:32AM 37.1839 -78.2692 38° Northeast 512 589 41,000  Level Washington Center
09:33AM 37.2992 -78.1556 38° Northeast 517 595 41,000  Level Washington Center
09:34AM 37.4097 -78.0494 37° Northeast 512 589 41,000  Level Washington Center
09:35AM 37.5225 -77.9381 38° Northeast 512 589 41,000  Level Washington Center
09:36AM 37.6353 -77.8261 38° Northeast 512 589 41,000  Level Washington Center
09:37AM 37.7500 -77.7139 38° Northeast 512 589 41,000  Level Washington Center
09:38AM 37.8644 -77.5989 38° Northeast 517 595 41,000 -360 Level Washington Center
09:39AM 37.9811 -77.4833 38° Northeast 522 601 40,300 -1,140 Descending Washington Center
09:40AM 38.1061 -77.3544 39° Northeast 522 601 38,800 -1,500 Descending Washington Center
09:41AM 38.2244 -77.2358 38° Northeast 527 606 37,300 -1,560 Descending Washington Center
09:42AM 38.3428 -77.1167 38° Northeast 537 618 35,800 -1,500 Descending Washington Center
09:43AM 38.4653 -76.9917 39° Northeast 547 629 34,400 -1,440 Descending Washington Center
09:44AM 38.5878 -76.8667 39° Northeast 552 635 32,900 -1,500 Descending Washington Center
09:45AM 38.7036 -76.7489 38° Northeast 571 657 31,400 -1,560 Descending Washington Center
09:46AM 38.8214 -76.6122 42° Northeast 571 657 29,800 -1,920 Descending Washington Center
09:47AM 38.9392 -76.4775 42° Northeast 571 657 27,700 -2,100 Descending Washington Center
09:48AM 39.0528 -76.3428 43° Northeast 560 644 25,600 -1,920 Descending Washington Center
09:49AM 39.1639 -76.2153 42° Northeast 546 628 24,000 -840 Descending Washington Center
09:50AM 39.2750 -76.0875 42° Northeast 533 613 24,000 -300 Level Washington Center
09:51AM 39.4047 -75.9675 36° Northeast 527 606 23,500 -2,100 Descending Washington Center
09:52AM 39.5111 -75.8686 36° Northeast 485 558 19,900 -3,060 Descending Washington Center
09:54AM 39.7500 -75.6500 35° Northeast 416 479 13,400 -2,100 Descending Philadelphia TRACON
09:55AM 39.8333 -75.5667 38° Northeast 393 452 13,000 -240 Descending Philadelphia TRACON
09:56AM 39.9167 -75.4833 37° Northeast 404 465 13,000  Level Philadelphia TRACON
09:57AM 40.0167 -75.4000 33° Northeast 406 467 13,000  Level Philadelphia TRACON
09:58AM 40.1000 -75.3167 37° Northeast 412 474 13,000 -480 Level Philadelphia TRACON
09:59AM 40.1833 -75.2333 37° Northeast 297 342 12,100 -1,320 Descending Philadelphia TRACON
10:02AM 40.3500 -75.0667 37° Northeast 309 356 8,500 -1,740 Descending New York TRACON
10:03AM 40.4000 -74.9833 52° Northeast 305 351 6,400 -1,800 Descending New York TRACON
10:04AM 40.4500 -74.9000 52° Northeast 278 320 4,900 -1,440 Descending New York TRACON
10:05AM 40.4833 -74.8333 57° Northeast 258 297 3,700 -900 Descending New York TRACON
10:06AM 40.5167 -74.7333 66° East 262 302 3,100 -300 Descending New York TRACON
10:07AM 40.5500 -74.6500 62° Northeast 259 298 3,100  Level New York TRACON
10:08AM 40.5833 -74.5667 62° Northeast 262 302 3,100 -420 Level New York TRACON
10:09AM 40.6167 -74.5000 57° Northeast 232 267 2,300 -540 Descending New York TRACON
10:10AM 40.6500 -74.4333 57° Northeast 214 246 2,100 -120 Descending New York TRACON
10:11AM 40.6833 -74.3500 62° Northeast 202 232 2,100  Level New York TRACON
10:12AM 40.7000 -74.3000 66° East 206 237 2,100  Level New York TRACON
10:13AM 40.7333 -74.2333 57° Northeast 200 230 2,100 -60 Level New York TRACON
10:14AM 40.7667 -74.1833 49° Northeast 176 203 2,000 -300 Descending New York TRACON
10:15AM 40.8000 -74.1500 37° Northeast 157 181 1,500 -600 Descending New York TRACON
10:16AM 40.8167 -74.1000 66° East 133 153 800 -720 Descending New York TRACON